#�ϑ�����,���ϕ���,���ϕ���,�ő啗��,�ő啗����������,�ő�u�ԕ���,�ő�u�ԕ�����������
#(�N����),(m/s)   ,(16����),(m/s)   ,(16����)        ,(m/s)       ,(16����)            
2012/10/4 0:01,3.4,4,3.4,2,9.9,15
2012/10/4 0:02,3.4,4,3.5,2,6.5,13
2012/10/4 0:03,3.3,4,3.4,2,2.6,4
2012/10/4 0:04,3.1,4,3.3,2,2.1,2
2012/10/4 0:05,2.9,3,3.1,2,4.5,16
2012/10/4 0:06,2.9,2,3,3,6.7,16
2012/10/4 0:07,2.6,16,2.9,4,3.9,16
2012/10/4 0:08,2.6,16,2.7,4,4.4,15
2012/10/4 0:09,2.4,16,2.6,4,4.4,3
2012/10/4 0:10,2.6,16,2.6,4,6.1,3
2012/10/4 0:11,2.1,16,2.5,4,2.7,2
2012/10/4 0:12,2.4,1,2.4,4,11.5,15
2012/10/4 0:13,2.6,1,2.6,4,6.7,1
2012/10/4 0:14,2.9,16,2.9,4,8.5,1
2012/10/4 0:15,3,1,3,2,5.6,15
2012/10/4 0:16,3.1,1,3.2,1,8.6,16
2012/10/4 0:17,3.2,1,3.2,1,5.7,2
2012/10/4 0:18,3.6,1,3.6,1,11.3,16
2012/10/4 0:19,3.8,1,3.8,1,8.5,16
2012/10/4 0:20,4,16,4,16,9.2,1
2012/10/4 0:21,4.3,16,4.3,16,9.8,16
2012/10/4 0:22,4.7,16,4.7,16,12.5,1
2012/10/4 0:23,5.3,16,5.3,16,17.2,16
2012/10/4 0:24,5.7,16,5.7,16,12.6,16
2012/10/4 0:25,5.6,16,5.7,16,7,16
2012/10/4 0:26,5.5,16,5.6,16,4.1,16
2012/10/4 0:27,5.8,16,5.8,16,10.5,1
2012/10/4 0:28,5.7,16,6,16,10.3,2
2012/10/4 0:29,5.8,16,5.8,16,12.1,1
2012/10/4 0:30,5.8,16,5.9,16,9.8,16
2012/10/4 0:31,5.9,16,5.9,16,10.2,1
2012/10/4 0:32,5.8,16,6,16,14,16
2012/10/4 0:33,5.5,16,5.8,16,14.2,16
2012/10/4 0:34,5.3,16,5.4,16,9.4,15
2012/10/4 0:35,5.8,16,5.8,16,15.3,1
2012/10/4 0:36,6.7,16,6.7,16,14.4,1
2012/10/4 0:37,6.8,16,6.9,16,11.6,15
2012/10/4 0:38,6.8,16,6.8,16,11.9,1
2012/10/4 0:39,7.2,16,7.2,16,14.5,16
2012/10/4 0:40,7.4,16,7.4,16,13.3,15
2012/10/4 0:41,7.1,16,7.4,16,7.7,16
2012/10/4 0:42,6.8,16,7,16,9.9,15
2012/10/4 0:43,7,16,7,16,12.3,16
2012/10/4 0:44,7.1,16,7.1,16,10.7,1
2012/10/4 0:45,7,16,7.2,16,12.4,1
2012/10/4 0:46,7,16,7,16,15,16
2012/10/4 0:47,6.9,16,7,16,12.6,16
2012/10/4 0:48,7.1,16,7.1,16,12.5,15
2012/10/4 0:49,6.7,16,7.1,16,9.3,1
2012/10/4 0:50,6.5,16,6.7,16,10.5,16
2012/10/4 0:51,6.9,16,6.9,16,11.8,1
2012/10/4 0:52,6.9,16,6.9,16,10.6,16
2012/10/4 0:53,7.1,16,7.1,16,16.9,16
2012/10/4 0:54,7.3,16,7.3,16,16.9,16
2012/10/4 0:55,7.3,16,7.4,16,14.4,15
2012/10/4 0:56,6.9,16,7.3,16,8.6,1
2012/10/4 0:57,6.6,16,6.8,16,8.1,1
2012/10/4 0:58,6.3,16,6.5,16,7.2,2
2012/10/4 0:59,6.5,16,6.5,16,14.9,16
2012/10/4 1:00,6.6,16,6.6,16,16.2,16
2012/10/4 1:01,6.5,16,6.7,16,11,16
2012/10/4 1:02,6.6,16,6.7,16,12.4,1
2012/10/4 1:03,6.3,16,6.6,16,10.6,1
2012/10/4 1:04,6.3,16,6.3,16,14.3,16
2012/10/4 1:05,6,16,6.2,16,11,1
2012/10/4 1:06,6.1,16,6.1,16,12.6,16
2012/10/4 1:07,6.2,16,6.2,16,17.1,16
2012/10/4 1:08,6.4,16,6.5,16,9.5,15
2012/10/4 1:09,6.4,16,6.6,16,13.6,16
2012/10/4 1:10,6.2,16,6.3,16,10.5,1
2012/10/4 1:11,6.3,16,6.3,16,13.2,16
2012/10/4 1:12,6.2,16,6.3,16,10.6,16
2012/10/4 1:13,5.8,16,6.1,16,13.5,1
2012/10/4 1:14,5.7,16,5.8,16,10.9,1
2012/10/4 1:15,5.5,1,5.7,16,7.5,1
2012/10/4 1:16,5,16,5.5,16,3.8,15
2012/10/4 1:17,4.8,1,5.1,16,8.7,1
2012/10/4 1:18,4.8,16,4.8,16,9.8,16
2012/10/4 1:19,4.8,16,4.8,16,12.2,1
2012/10/4 1:20,5,16,5.1,16,12.2,16
2012/10/4 1:21,4.9,16,5,16,10.3,15
2012/10/4 1:22,5,16,5,16,13.1,15
2012/10/4 1:23,4.9,16,5,16,7.9,1
2012/10/4 1:24,4.5,16,4.9,16,5.8,15
2012/10/4 1:25,4.9,16,4.9,1,14.5,16
2012/10/4 1:26,5.4,16,5.4,16,11.4,16
2012/10/4 1:27,5.7,16,5.7,16,10.9,16
2012/10/4 1:28,5.7,16,5.7,16,10.3,15
2012/10/4 1:29,5.6,16,5.7,16,10.7,1
2012/10/4 1:30,5.3,16,5.7,16,8.7,1
2012/10/4 1:31,5.2,16,5.4,16,8.1,16
2012/10/4 1:32,5,16,5.2,16,6.7,14
2012/10/4 1:33,4.9,16,5,16,7.1,1
2012/10/4 1:34,5.1,16,5.1,16,10.8,15
2012/10/4 1:35,5,16,5.2,16,9.3,16
2012/10/4 1:36,4.8,16,5,16,11.6,16
2012/10/4 1:37,4.9,16,4.9,16,15.3,16
2012/10/4 1:38,5.2,16,5.2,16,15.8,14
2012/10/4 1:39,5.5,16,5.5,16,13.8,16
2012/10/4 1:40,5.9,16,5.9,16,14.5,16
2012/10/4 1:41,6.1,16,6.1,16,9.3,14
2012/10/4 1:42,6.5,16,6.5,16,15.3,15
2012/10/4 1:43,6.8,16,6.8,16,11.8,15
2012/10/4 1:44,6.7,16,6.8,16,11.9,16
2012/10/4 1:45,6.8,16,6.8,16,12.2,1
2012/10/4 1:46,7,16,7,16,10.3,1
2012/10/4 1:47,7.1,16,7.2,16,14.8,16
2012/10/4 1:48,7.1,16,7.1,16,15.2,16
2012/10/4 1:49,6.9,16,7.1,16,11.8,15
2012/10/4 1:50,6.7,16,6.9,16,12.5,16
2012/10/4 1:51,6.9,16,6.9,16,13.3,16
2012/10/4 1:52,6.9,16,7,16,15.8,16
2012/10/4 1:53,7.1,16,7.1,16,14.4,16
2012/10/4 1:54,7.4,16,7.4,16,12.6,1
2012/10/4 1:55,7.4,16,7.4,16,12.6,15
2012/10/4 1:56,7.3,16,7.4,16,10.6,14
2012/10/4 1:57,7,16,7.3,16,12.5,16
2012/10/4 1:58,6.9,16,7,16,14,16
2012/10/4 1:59,6.6,16,6.8,16,8.5,2
2012/10/4 2:00,6.5,16,6.6,16,10.6,15
2012/10/4 2:01,6.7,16,6.7,16,16.8,16
2012/10/4 2:02,6.7,16,6.7,16,13.2,1
2012/10/4 2:03,6.6,16,6.7,16,15.4,16
2012/10/4 2:04,6.6,16,6.9,16,14.9,16
2012/10/4 2:05,6.7,16,6.8,16,13.5,16
2012/10/4 2:06,6.7,16,6.7,16,10.2,16
2012/10/4 2:07,7.1,16,7.1,16,16.8,16
2012/10/4 2:08,7.2,16,7.2,16,17.6,16
2012/10/4 2:09,7.7,16,7.7,16,14.2,16
2012/10/4 2:10,8,16,8,16,12.7,1
2012/10/4 2:11,7.7,16,7.9,16,13.9,16
2012/10/4 2:12,7.8,16,7.8,16,17.6,16
2012/10/4 2:13,7.8,16,8,16,21.2,15
2012/10/4 2:14,8.2,16,8.2,16,17,16
2012/10/4 2:15,8.9,16,8.9,16,19.6,16
2012/10/4 2:16,9.3,16,9.3,16,16.3,1
2012/10/4 2:17,9.3,16,9.4,16,13.5,1
2012/10/4 2:18,9.2,16,9.4,16,13,1
2012/10/4 2:19,9.4,16,9.4,16,18.4,16
2012/10/4 2:20,9.8,16,9.8,16,20.5,16
2012/10/4 2:21,10.1,16,10.1,16,15.8,16
2012/10/4 2:22,10.2,16,10.2,16,17.1,1
2012/10/4 2:23,10.6,16,10.7,16,16.9,16
2012/10/4 2:24,10.7,16,10.8,16,17.7,1
2012/10/4 2:25,9.9,16,10.6,16,11.8,14
2012/10/4 2:26,9.4,16,9.8,16,9.1,16
2012/10/4 2:27,8.9,16,9.4,16,8.2,15
2012/10/4 2:28,8.7,16,8.9,16,12.2,16
2012/10/4 2:29,8.5,16,8.7,16,13,15
2012/10/4 2:30,8.1,16,8.5,16,13.2,15
2012/10/4 2:31,8,16,8.1,16,16.3,1
2012/10/4 2:32,7.8,16,8,16,16.8,1
2012/10/4 2:33,8,16,8,16,17.4,16
2012/10/4 2:34,8.1,16,8.2,16,21.6,16
2012/10/4 2:35,8.9,16,8.9,16,19.6,16
2012/10/4 2:36,9.3,16,9.3,16,18.4,1
2012/10/4 2:37,10.1,16,10.1,16,18,16
2012/10/4 2:38,10.6,16,10.6,16,17.5,15
2012/10/4 2:39,10.6,16,10.7,16,12.2,14
2012/10/4 2:40,11,16,11,16,17.9,16
2012/10/4 2:41,11.4,16,11.4,16,18.5,1
2012/10/4 2:42,11.2,16,11.5,16,20.3,15
2012/10/4 2:43,10.6,16,11.1,16,15.1,15
2012/10/4 2:44,10.4,16,10.6,16,16.6,14
2012/10/4 2:45,10,16,10.4,16,14.5,16
2012/10/4 2:46,10.1,16,10.1,16,15.8,16
2012/10/4 2:47,9.5,16,10,16,11.5,15
2012/10/4 2:48,8.9,16,9.4,16,10.9,1
2012/10/4 2:49,8.7,16,8.9,16,12.1,15
2012/10/4 2:50,8.2,16,8.8,16,15.1,15
2012/10/4 2:51,7.6,16,8,16,12.8,16
2012/10/4 2:52,7.4,16,7.6,16,11.3,15
2012/10/4 2:53,7.4,16,7.5,16,11.4,1
2012/10/4 2:54,7,16,7.3,16,15.4,15
2012/10/4 2:55,6.6,16,7,16,12.1,15
2012/10/4 2:56,6,16,6.5,16,11.4,16
2012/10/4 2:57,5.9,16,6,16,12.8,15
2012/10/4 2:58,6.1,16,6.1,16,11.9,15
2012/10/4 2:59,6.2,16,6.2,16,11.4,16
2012/10/4 3:00,6.4,16,6.4,16,17.1,16
2012/10/4 3:01,6.5,16,6.5,16,13.9,15
2012/10/4 3:02,6.8,16,6.8,16,13.4,16
2012/10/4 3:03,7.3,16,7.3,16,20.1,16
2012/10/4 3:04,7,16,7.3,16,11.6,16
2012/10/4 3:05,7.2,16,7.3,16,16.3,16
2012/10/4 3:06,7.5,16,7.6,16,14.8,15
2012/10/4 3:07,7.6,16,7.6,16,12.4,14
2012/10/4 3:08,7.6,16,7.8,16,13.1,15
2012/10/4 3:09,7.5,16,7.6,16,15.8,15
2012/10/4 3:10,7.6,16,7.7,16,18.7,15
2012/10/4 3:11,7.5,16,7.6,16,14.1,16
2012/10/4 3:12,7.4,16,7.6,16,13.8,16
2012/10/4 3:13,7.1,16,7.4,16,15.7,15
2012/10/4 3:14,7.5,16,7.5,16,16.1,16
2012/10/4 3:15,7.4,16,7.6,16,12.1,1
2012/10/4 3:16,7.1,16,7.3,16,14.1,15
2012/10/4 3:17,7.3,16,7.4,16,14.4,1
2012/10/4 3:18,7.6,16,7.6,16,16.1,1
2012/10/4 3:19,7.8,16,7.9,16,11.3,1
2012/10/4 3:20,7.6,16,7.7,16,15.6,16
2012/10/4 3:21,7.6,16,7.7,16,13.9,16
2012/10/4 3:22,7.4,16,7.5,16,13.1,13
2012/10/4 3:23,7.2,16,7.3,16,14.8,1
2012/10/4 3:24,7.3,16,7.4,16,13.8,1
2012/10/4 3:25,7.4,16,7.4,16,12.5,1
2012/10/4 3:26,7.9,16,7.9,16,17.4,15
2012/10/4 3:27,7.9,16,8,16,19.5,16
2012/10/4 3:28,8.1,16,8.1,16,19.2,16
2012/10/4 3:29,8.2,16,8.2,16,15,1
2012/10/4 3:30,8.2,16,8.3,16,17.5,16
2012/10/4 3:31,8.7,16,8.7,16,17.8,16
2012/10/4 3:32,9.2,16,9.2,16,17.9,16
2012/10/4 3:33,9.6,16,9.7,16,19.5,16
2012/10/4 3:34,9.9,16,9.9,16,19.6,1
2012/10/4 3:35,10.4,16,10.4,16,20.4,16
2012/10/4 3:36,10.5,16,10.5,16,17.7,16
2012/10/4 3:37,10.5,16,10.7,16,15.9,16
2012/10/4 3:38,10.2,16,10.4,16,15.4,16
2012/10/4 3:39,10.4,16,10.4,16,16,16
2012/10/4 3:40,10.4,16,10.4,16,13.1,16
2012/10/4 3:41,10.5,16,10.5,16,17.8,1
2012/10/4 3:42,10.8,16,10.8,16,23.6,14
2012/10/4 3:43,10.6,16,10.8,16,14.5,16
2012/10/4 3:44,10.1,16,10.6,16,15,14
2012/10/4 3:45,9.7,16,10.1,16,15.9,1
2012/10/4 3:46,9.4,16,9.7,16,18.6,1
2012/10/4 3:47,9.5,16,9.5,16,18,16
2012/10/4 3:48,9.7,16,9.8,16,17.6,16
2012/10/4 3:49,9.7,16,9.8,16,17.5,16
2012/10/4 3:50,9.7,16,9.8,16,14,16
2012/10/4 3:51,9.8,16,9.9,16,19.9,16
2012/10/4 3:52,9.3,16,9.7,16,18.8,16
2012/10/4 3:53,9.4,16,9.4,16,17.9,1
2012/10/4 3:54,9.9,16,9.9,16,15.8,16
2012/10/4 3:55,10.3,16,10.3,16,19,16
2012/10/4 3:56,10.4,16,10.4,16,18,16
2012/10/4 3:57,10.2,16,10.5,16,13.2,1
2012/10/4 3:58,10.1,16,10.2,16,14.9,16
2012/10/4 3:59,10.2,16,10.2,16,18.4,16
2012/10/4 4:00,10.7,16,10.7,16,18,16
2012/10/4 4:01,10.4,16,10.6,16,19.8,16
2012/10/4 4:02,10.5,16,10.6,16,17.2,16
2012/10/4 4:03,10.2,16,10.5,16,13.2,15
2012/10/4 4:04,10.3,16,10.3,16,17.9,16
2012/10/4 4:05,10.1,16,10.3,16,18.7,16
2012/10/4 4:06,10.4,16,10.4,16,22.1,16
2012/10/4 4:07,11,16,11,16,20.7,16
2012/10/4 4:08,11.2,16,11.2,16,20.3,16
2012/10/4 4:09,11.1,16,11.2,16,17,16
2012/10/4 4:10,10.8,16,11.1,16,20.3,14
2012/10/4 4:11,11,16,11.2,16,18.9,16
2012/10/4 4:12,11,16,11,16,19.2,16
2012/10/4 4:13,11.3,16,11.4,16,18.9,16
2012/10/4 4:14,11,16,11.3,16,14,16
2012/10/4 4:15,11.4,16,11.4,16,23.5,15
2012/10/4 4:16,11.1,16,11.4,16,17.1,16
2012/10/4 4:17,10.6,16,11,16,17.9,16
2012/10/4 4:18,10.6,16,10.7,16,19.8,16
2012/10/4 4:19,10.8,16,10.9,16,20.3,16
2012/10/4 4:20,10.9,16,11,16,18.9,1
2012/10/4 4:21,11,16,11,16,19.9,16
2012/10/4 4:22,11.6,16,11.6,16,26,16
2012/10/4 4:23,11.7,16,11.8,16,20.2,1
2012/10/4 4:24,12.5,16,12.5,16,21.8,16
2012/10/4 4:25,12.3,16,12.6,16,19.6,16
2012/10/4 4:26,12.3,16,12.3,16,19.3,16
2012/10/4 4:27,12.7,16,12.7,16,23.5,15
2012/10/4 4:28,12.6,16,12.8,16,18.8,16
2012/10/4 4:29,12.6,16,12.6,16,20.5,1
2012/10/4 4:30,13.1,16,13.1,16,23.2,16
2012/10/4 4:31,13.4,16,13.4,16,20.7,1
2012/10/4 4:32,13,16,13.4,16,19.4,16
2012/10/4 4:33,13.1,16,13.2,16,22.4,16
2012/10/4 4:34,12.7,16,13.1,16,20.7,1
2012/10/4 4:35,12.6,16,12.8,16,24,16
2012/10/4 4:36,13.2,16,13.2,16,20.9,16
2012/10/4 4:37,13.1,16,13.2,16,19.7,1
2012/10/4 4:38,13.3,16,13.3,16,20.5,16
2012/10/4 4:39,13.5,16,13.5,16,19.9,16
2012/10/4 4:40,13.4,16,13.6,16,24.8,16
2012/10/4 4:41,13.2,16,13.3,16,20.3,16
2012/10/4 4:42,13.4,16,13.4,16,21,16
2012/10/4 4:43,13.3,16,13.5,16,19.2,1
2012/10/4 4:44,13.1,16,13.4,16,17.1,16
2012/10/4 4:45,13.1,16,13.1,16,16.7,16
2012/10/4 4:46,12.6,16,13.1,16,19.4,1
2012/10/4 4:47,12.8,16,12.8,16,19.4,16
2012/10/4 4:48,12.8,16,12.8,16,21.9,16
2012/10/4 4:49,12.4,16,12.8,16,18.4,16
2012/10/4 4:50,12.2,16,12.3,16,20.1,16
2012/10/4 4:51,12.1,16,12.2,16,19.6,16
2012/10/4 4:52,11.5,16,12,16,15.9,16
2012/10/4 4:53,11.3,16,11.4,16,15.4,16
2012/10/4 4:54,11.3,16,11.5,16,19.3,16
2012/10/4 4:55,11.1,16,11.2,16,13.5,16
2012/10/4 4:56,11.3,16,11.3,16,21.3,16
2012/10/4 4:57,11.3,16,11.4,16,21.2,15
2012/10/4 4:58,11.2,16,11.4,16,19.3,16
2012/10/4 4:59,11.3,16,11.3,16,17.9,16
2012/10/4 5:00,11.2,16,11.4,16,15.7,15
2012/10/4 5:01,10.8,16,11.1,16,13.8,1
2012/10/4 5:02,10.9,16,10.9,16,18,1
2012/10/4 5:03,11.4,16,11.4,16,22.4,16
2012/10/4 5:04,11.6,16,11.6,16,19.9,16
2012/10/4 5:05,11.6,16,11.8,16,19.4,1
2012/10/4 5:06,11.1,16,11.6,16,13,16
2012/10/4 5:07,10.5,16,11,16,17.4,2
2012/10/4 5:08,10.3,16,10.6,16,18.5,16
2012/10/4 5:09,10.3,16,10.4,16,18.9,16
2012/10/4 5:10,11,16,11,16,23.1,16
2012/10/4 5:11,11.6,16,11.6,16,21.5,16
2012/10/4 5:12,11.8,16,11.9,16,18.7,16
2012/10/4 5:13,11.7,16,11.9,16,24.4,16
2012/10/4 5:14,11.7,16,11.8,16,20.5,16
2012/10/4 5:15,12.4,16,12.4,16,22.9,1
2012/10/4 5:16,13.1,16,13.1,16,21.2,1
2012/10/4 5:17,13.6,16,13.6,16,20.2,1
2012/10/4 5:18,13.6,16,13.6,16,17.5,16
2012/10/4 5:19,13.6,16,13.7,16,21.4,16
2012/10/4 5:20,13.2,16,13.5,16,19,16
2012/10/4 5:21,12.7,16,13.2,16,19.4,15
2012/10/4 5:22,12.7,16,12.8,16,19.5,1
2012/10/4 5:23,11.9,16,12.6,16,13,15
2012/10/4 5:24,11.3,16,11.9,16,10.5,14
2012/10/4 5:25,10.7,16,11.4,16,17.4,16
2012/10/4 5:26,10.4,16,10.7,16,21.3,15
2012/10/4 5:27,10.1,16,10.4,16,17.8,1
2012/10/4 5:28,10.3,16,10.3,16,20.3,16
2012/10/4 5:29,10.7,16,10.7,16,22.7,16
2012/10/4 5:30,10.6,16,10.8,16,19.3,16
2012/10/4 5:31,10.9,16,10.9,16,21,16
2012/10/4 5:32,11,16,11,16,18.6,16
2012/10/4 5:33,11.5,16,11.5,16,18.9,1
2012/10/4 5:34,12.1,16,12.1,16,20.1,16
2012/10/4 5:35,12.6,16,12.6,16,20.3,15
2012/10/4 5:36,12.3,16,12.6,16,15.9,16
2012/10/4 5:37,12.9,16,12.9,16,22.6,16
2012/10/4 5:38,12.8,16,12.8,16,19.8,16
2012/10/4 5:39,12.6,16,12.8,16,23,16
2012/10/4 5:40,12.9,16,12.9,16,19.9,16
2012/10/4 5:41,12.9,16,13.2,16,22.1,16
2012/10/4 5:42,12.7,16,13,16,19,16
2012/10/4 5:43,12.5,16,12.6,16,16.9,16
2012/10/4 5:44,12.4,16,12.5,16,22.1,16
2012/10/4 5:45,12.1,16,12.5,16,21.8,16
2012/10/4 5:46,12.8,16,12.8,16,22.1,1
2012/10/4 5:47,12.8,16,12.9,16,20.4,16
2012/10/4 5:48,12.6,16,12.8,16,20.6,16
2012/10/4 5:49,12,16,12.6,16,13.4,16
2012/10/4 5:50,11.8,16,11.9,16,18.3,16
2012/10/4 5:51,11.6,16,11.8,16,21.8,15
2012/10/4 5:52,12,16,12,16,21.2,16
2012/10/4 5:53,12.3,16,12.3,16,18.5,16
2012/10/4 5:54,12.4,16,12.6,16,19.6,15
2012/10/4 5:55,12.4,16,12.4,16,20.6,1
2012/10/4 5:56,12.1,16,12.5,16,21.6,16
2012/10/4 5:57,11.8,16,12.1,16,15.1,16
2012/10/4 5:58,11.6,16,11.8,16,18.5,1
2012/10/4 5:59,12.4,16,12.4,16,23.8,16
2012/10/4 6:00,12.7,16,12.7,16,21.4,1
2012/10/4 6:01,12.6,16,12.8,16,21.9,16
2012/10/4 6:02,12.5,16,12.7,16,22.4,16
2012/10/4 6:03,12.4,16,12.5,16,19.8,1
2012/10/4 6:04,12.8,16,12.8,16,22.7,16
2012/10/4 6:05,12.7,16,12.9,16,18.3,1
2012/10/4 6:06,12.5,16,12.6,16,21,16
2012/10/4 6:07,12.7,16,12.7,16,21.1,1
2012/10/4 6:08,12.7,16,12.7,16,21.8,1
2012/10/4 6:09,12.3,16,12.8,16,23.9,16
2012/10/4 6:10,12.1,16,12.3,16,20.6,1
2012/10/4 6:11,12.3,16,12.3,16,18.8,16
2012/10/4 6:12,12.3,16,12.4,16,21.2,16
2012/10/4 6:13,12.2,16,12.3,16,17.6,1
2012/10/4 6:14,11.6,16,12.1,16,17,16
2012/10/4 6:15,11.9,16,11.9,16,19.7,15
2012/10/4 6:16,12,16,12.1,16,23,1
2012/10/4 6:17,11.5,16,12,16,19.2,15
2012/10/4 6:18,11.7,16,11.8,16,18.9,1
2012/10/4 6:19,11.6,16,11.7,16,20.2,16
2012/10/4 6:20,11.9,16,11.9,16,23.3,16
2012/10/4 6:21,11.8,16,11.9,16,19.7,15
2012/10/4 6:22,11.5,16,11.8,16,19.5,15
2012/10/4 6:23,11.2,16,11.5,16,18.8,16
2012/10/4 6:24,11.5,16,11.5,16,20.4,2
2012/10/4 6:25,11.4,16,11.6,16,18,16
2012/10/4 6:26,11.1,16,11.5,16,20.5,16
2012/10/4 6:27,11.2,16,11.2,16,18.7,15
2012/10/4 6:28,11.4,16,11.4,16,20.6,15
2012/10/4 6:29,11.6,16,11.7,16,20.4,16
2012/10/4 6:30,11.3,16,11.6,16,19,1
2012/10/4 6:31,11.2,16,11.3,16,13.4,15
2012/10/4 6:32,11.3,16,11.4,16,18.1,1
2012/10/4 6:33,11.4,16,11.4,16,16.2,2
2012/10/4 6:34,10.9,16,11.3,16,14.8,14
2012/10/4 6:35,10.5,16,10.9,16,16.2,15
2012/10/4 6:36,10.3,16,10.4,16,13.4,16
2012/10/4 6:37,10.2,16,10.3,16,20.6,16
2012/10/4 6:38,9.9,16,10.3,16,21.9,1
2012/10/4 6:39,10.2,16,10.2,16,24.8,16
2012/10/4 6:40,10.3,16,10.3,16,21.3,14
2012/10/4 6:41,10.2,16,10.4,16,19,14
2012/10/4 6:42,10,16,10.2,16,11.9,16
2012/10/4 6:43,9.8,16,10,16,15.3,16
2012/10/4 6:44,10.5,16,10.5,16,22.8,1
2012/10/4 6:45,11.2,16,11.2,16,22.1,16
2012/10/4 6:46,11.7,16,11.7,16,26.9,16
2012/10/4 6:47,11.7,16,11.9,16,14,16
2012/10/4 6:48,11.3,16,11.7,16,15.2,15
2012/10/4 6:49,10.7,16,11.3,16,16.9,15
2012/10/4 6:50,10.4,16,10.6,16,16.7,16
2012/10/4 6:51,10.5,16,10.5,16,20.9,16
2012/10/4 6:52,10.9,16,10.9,16,21.9,16
2012/10/4 6:53,11.5,16,11.5,16,19.5,15
2012/10/4 6:54,11,16,11.4,16,16.8,1
2012/10/4 6:55,10.5,16,11.1,16,13.9,15
2012/10/4 6:56,10.1,16,10.5,16,18.9,16
2012/10/4 6:57,10,16,10.1,16,14.3,14
2012/10/4 6:58,10.1,16,10.1,16,11.5,15
2012/10/4 6:59,10.2,16,10.3,16,16.2,16
2012/10/4 7:00,10.7,16,10.7,16,23.2,16
2012/10/4 7:01,11,16,11.2,16,21.1,16
2012/10/4 7:02,10.8,16,10.9,16,17.1,15
2012/10/4 7:03,10.4,16,10.8,16,17.8,16
2012/10/4 7:04,10.4,16,10.6,16,16.2,16
2012/10/4 7:05,10.5,16,10.5,16,18,16
2012/10/4 7:06,10.7,16,11,16,16.5,16
2012/10/4 7:07,10.8,16,10.8,16,20.3,16
2012/10/4 7:08,11.3,16,11.3,16,20.2,16
2012/10/4 7:09,11.5,16,11.5,16,16.5,1
2012/10/4 7:10,10.9,16,11.5,16,15.1,14
2012/10/4 7:11,10.7,16,10.9,16,21.3,16
2012/10/4 7:12,10.9,16,10.9,16,23.6,16
2012/10/4 7:13,10.9,16,10.9,16,20.5,1
2012/10/4 7:14,10.8,16,10.9,16,17.7,1
2012/10/4 7:15,10.9,16,10.9,16,17.8,16
2012/10/4 7:16,11.1,16,11.1,16,18.3,1
2012/10/4 7:17,11,16,11.3,16,16,16
2012/10/4 7:18,10.9,16,11.2,16,21.3,15
2012/10/4 7:19,11.1,16,11.1,16,22.8,16
2012/10/4 7:20,11.6,16,11.6,16,22.1,16
2012/10/4 7:21,11.8,16,11.9,16,19.3,1
2012/10/4 7:22,12,16,12.1,16,19.8,16
2012/10/4 7:23,12.3,16,12.4,16,19.2,15
2012/10/4 7:24,12,16,12.3,16,15.3,1
2012/10/4 7:25,12.2,16,12.3,16,23.8,16
2012/10/4 7:26,12.1,16,12.3,16,18.4,16
2012/10/4 7:27,12,16,12.1,16,19.4,16
2012/10/4 7:28,12.2,16,12.4,16,21.2,16
2012/10/4 7:29,12.1,16,12.2,16,19.6,16
2012/10/4 7:30,11.9,16,12.2,16,19.9,15
2012/10/4 7:31,11.5,16,11.8,16,18.8,15
2012/10/4 7:32,11.6,16,11.6,16,19.8,1
2012/10/4 7:33,11.1,16,11.5,16,16.7,16
2012/10/4 7:34,11.1,16,11.2,16,12.4,1
2012/10/4 7:35,11.2,16,11.2,16,20.4,16
2012/10/4 7:36,11.5,16,11.5,16,19.4,16
2012/10/4 7:37,11.6,16,11.6,16,16,16
2012/10/4 7:38,11.1,16,11.5,16,15.6,15
2012/10/4 7:39,10.7,16,11.1,16,14.7,16
2012/10/4 7:40,10.3,16,10.8,16,14.3,16
2012/10/4 7:41,10.4,16,10.4,16,19.4,16
2012/10/4 7:42,10.3,16,10.4,16,21,16
2012/10/4 7:43,10.6,16,10.6,16,22.1,15
2012/10/4 7:44,10.7,16,10.7,16,15.1,1
2012/10/4 7:45,10.1,16,10.6,16,14.8,16
2012/10/4 7:46,9.6,16,10.1,16,15.1,14
2012/10/4 7:47,9,16,9.5,16,13.4,14
2012/10/4 7:48,9,16,9.2,16,15.1,1
2012/10/4 7:49,8.9,16,9.1,16,14.2,15
2012/10/4 7:50,8.9,16,8.9,16,15.8,16
2012/10/4 7:51,8.7,16,8.9,16,15.3,15
2012/10/4 7:52,8.2,16,8.7,16,17.7,16
2012/10/4 7:53,7.7,16,8.1,16,12.3,16
2012/10/4 7:54,7.6,16,7.7,16,15.2,16
2012/10/4 7:55,7.8,16,7.8,16,17.7,16
2012/10/4 7:56,8,16,8,16,16.7,15
2012/10/4 7:57,8.3,16,8.3,16,14.9,14
2012/10/4 7:58,8.3,16,8.3,16,17.6,15
2012/10/4 7:59,8.3,16,8.3,16,18.4,14
2012/10/4 8:00,8.6,16,8.6,16,18.3,16
2012/10/4 8:01,8.6,16,8.6,16,20.3,15
2012/10/4 8:02,8.7,16,8.8,16,18.5,15
2012/10/4 8:03,8.8,16,8.8,16,16.7,15
2012/10/4 8:04,8.8,16,8.8,16,15.2,16
2012/10/4 8:05,8.8,15,9,15,12.8,15
2012/10/4 8:06,9,15,9,15,15.6,16
2012/10/4 8:07,9,15,9,15,13.9,16
2012/10/4 8:08,8.9,15,9,15,13.9,16
2012/10/4 8:09,9.1,15,9.2,15,15,13
2012/10/4 8:10,8.8,15,9.1,15,13.1,16
2012/10/4 8:11,8.6,15,8.8,15,13.8,1
2012/10/4 8:12,8.7,15,8.7,15,18.6,16
2012/10/4 8:13,9,15,9,15,19,16
2012/10/4 8:14,9.2,16,9.3,15,17.5,15
2012/10/4 8:15,9.2,16,9.3,15,14.1,15
2012/10/4 8:16,8.6,15,9.2,15,11,15
2012/10/4 8:17,8.5,16,8.6,15,12.5,16
2012/10/4 8:18,8.7,16,8.7,15,17.7,16
2012/10/4 8:19,8.6,16,8.7,15,14.2,1
2012/10/4 8:20,8.8,16,8.8,15,13.5,16
2012/10/4 8:21,9.2,16,9.2,15,16.3,16
2012/10/4 8:22,9.1,16,9.3,15,19.3,16
2012/10/4 8:23,9.2,16,9.2,15,17.8,1
2012/10/4 8:24,9.4,16,9.4,16,17.8,16
2012/10/4 8:25,9.4,16,9.4,16,14.3,1
2012/10/4 8:26,9.9,16,9.9,16,17.1,1
2012/10/4 8:27,10.2,16,10.2,16,17.7,15
2012/10/4 8:28,10,16,10.1,16,14.1,15
2012/10/4 8:29,10.1,16,10.1,16,18.1,1
2012/10/4 8:30,10.3,16,10.3,16,16.5,1
2012/10/4 8:31,9.7,16,10.3,16,10.9,16
2012/10/4 8:32,9.6,16,9.7,16,12.6,16
2012/10/4 8:33,9.3,16,9.6,16,16.3,15
2012/10/4 8:34,8.9,16,9.3,16,13.2,16
2012/10/4 8:35,8.7,16,8.9,16,15.1,15
2012/10/4 8:36,8.6,16,8.8,16,14.5,1
2012/10/4 8:37,8.7,16,8.7,16,17.9,16
2012/10/4 8:38,9.1,16,9.1,16,20.4,1
2012/10/4 8:39,8.8,16,9.1,16,11.1,16
2012/10/4 8:40,8.5,16,8.7,16,15.6,15
2012/10/4 8:41,9,16,9,16,20.9,16
2012/10/4 8:42,9.5,16,9.5,16,21.3,1
2012/10/4 8:43,9.5,16,9.6,16,13,16
2012/10/4 8:44,9.3,16,9.4,16,11.3,2
2012/10/4 8:45,9.4,16,9.6,16,15,1
2012/10/4 8:46,9.6,16,9.6,16,17.6,16
2012/10/4 8:47,9.3,16,9.6,16,14.2,15
2012/10/4 8:48,9,16,9.2,16,17.6,16
2012/10/4 8:49,9.2,16,9.2,16,21,16
2012/10/4 8:50,9.6,16,9.6,16,22.2,1
2012/10/4 8:51,9.5,16,9.7,16,14.3,16
2012/10/4 8:52,9,16,9.5,16,13.8,16
2012/10/4 8:53,9,16,9,16,13.9,1
2012/10/4 8:54,9.5,16,9.5,16,15.7,16
2012/10/4 8:55,9.6,16,9.6,16,13.8,1
2012/10/4 8:56,9.3,16,9.6,16,15.3,15
2012/10/4 8:57,9.4,16,9.4,16,15.7,16
2012/10/4 8:58,9.4,16,9.6,16,17.7,1
2012/10/4 8:59,8.9,16,9.4,16,10.6,14
2012/10/4 9:00,8.4,16,8.8,16,16.5,15
2012/10/4 9:01,8.2,16,8.4,16,14.8,16
2012/10/4 9:02,8.3,16,8.3,16,17.2,1
2012/10/4 9:03,8.5,16,8.6,16,16.3,16
2012/10/4 9:04,8.6,16,8.6,16,13.5,16
2012/10/4 9:05,8.5,16,8.7,16,17,1
2012/10/4 9:06,8.3,16,8.4,16,13,15
2012/10/4 9:07,8.4,16,8.4,16,12.3,14
2012/10/4 9:08,8.1,16,8.4,16,15,1
2012/10/4 9:09,8.6,16,8.6,16,14.9,15
2012/10/4 9:10,8.7,16,8.8,16,14.1,16
2012/10/4 9:11,8.7,16,8.9,16,12.8,1
2012/10/4 9:12,8.4,16,8.7,16,11.6,15
2012/10/4 9:13,8.6,16,8.6,16,22.4,15
2012/10/4 9:14,8.4,16,8.5,16,16.9,16
2012/10/4 9:15,8.4,16,8.4,16,15.3,16
2012/10/4 9:16,8.3,16,8.4,16,14.1,16
2012/10/4 9:17,8.1,16,8.3,16,10.1,16
2012/10/4 9:18,8.1,16,8.2,16,10.3,14
2012/10/4 9:19,7.6,16,8.1,16,11.4,14
2012/10/4 9:20,7.5,16,7.7,16,13.4,14
2012/10/4 9:21,7.6,16,7.6,16,14.8,16
2012/10/4 9:22,7.8,16,7.8,16,14.5,16
2012/10/4 9:23,7.4,16,7.7,16,14,15
2012/10/4 9:24,7.3,16,7.4,16,14.8,16
2012/10/4 9:25,7.3,16,7.3,16,12.7,16
2012/10/4 9:26,7.7,16,7.7,16,15,15
2012/10/4 9:27,7.6,16,7.8,16,11.5,16
2012/10/4 9:28,7.6,16,7.6,16,11.3,16
2012/10/4 9:29,7.7,16,7.7,16,12.2,16
2012/10/4 9:30,7.7,16,7.7,16,10.9,16
2012/10/4 9:31,7.8,16,7.8,16,14.3,16
2012/10/4 9:32,7.5,16,7.8,16,13.3,1
2012/10/4 9:33,7.8,16,7.8,16,18.5,1
2012/10/4 9:34,7.6,16,7.9,16,15.4,16
2012/10/4 9:35,7.7,16,7.7,16,14.4,15
2012/10/4 9:36,7.2,16,7.6,16,13.5,1
2012/10/4 9:37,7.7,16,7.7,16,16.5,16
2012/10/4 9:38,8,16,8,16,16.9,1
2012/10/4 9:39,8.2,16,8.3,16,14.9,16
2012/10/4 9:40,8.3,16,8.4,16,14,16
2012/10/4 9:41,8.2,16,8.4,16,11.5,16
2012/10/4 9:42,8.3,16,8.3,16,13.9,15
2012/10/4 9:43,8.4,16,8.4,16,14.5,13
2012/10/4 9:44,8.3,16,8.3,16,13.2,16
2012/10/4 9:45,8.3,16,8.4,16,18.4,1
2012/10/4 9:46,8.4,16,8.5,16,15.7,16
2012/10/4 9:47,8.3,16,8.5,16,17.8,1
2012/10/4 9:48,7.7,16,8.3,16,11.3,14
2012/10/4 9:49,7.4,16,7.7,16,10.7,1
2012/10/4 9:50,7.5,16,7.5,16,13.8,16
2012/10/4 9:51,7.4,16,7.5,16,10.9,1
2012/10/4 9:52,7.2,16,7.4,16,12.1,1
2012/10/4 9:53,7,16,7.2,16,14.2,16
2012/10/4 9:54,7.3,16,7.3,16,15,15
2012/10/4 9:55,7.6,16,7.6,16,16.9,16
2012/10/4 9:56,8.1,16,8.1,16,16.7,16
2012/10/4 9:57,8.2,16,8.2,16,16,16
2012/10/4 9:58,8.4,16,8.4,16,13.3,1
2012/10/4 9:59,8.9,16,8.9,16,17.8,15
2012/10/4 10:00,9,16,9.1,16,15.3,1
2012/10/4 10:01,9.6,16,9.6,16,15.6,1
2012/10/4 10:02,10.1,16,10.1,16,19.9,1
2012/10/4 10:03,10.1,16,10.3,16,19.8,16
2012/10/4 10:04,9.9,16,10.1,16,10.8,15
2012/10/4 10:05,9.6,16,9.9,16,13.3,16
2012/10/4 10:06,9.2,16,9.5,16,12.8,1
2012/10/4 10:07,8.9,16,9.3,16,15.4,16
2012/10/4 10:08,9.1,16,9.1,16,15.4,1
2012/10/4 10:09,8.9,16,9.2,16,14.9,1
2012/10/4 10:10,8.7,16,8.9,16,12.8,1
2012/10/4 10:11,8.3,16,8.6,16,10.2,16
2012/10/4 10:12,8.2,16,8.3,16,16.9,16
2012/10/4 10:13,8,16,8.1,16,13,16
2012/10/4 10:14,8,16,8.1,16,11,1
2012/10/4 10:15,7.9,16,7.9,16,12.4,1
2012/10/4 10:16,7.9,16,7.9,16,15.4,1
2012/10/4 10:17,7.9,16,7.9,16,12.3,1
2012/10/4 10:18,8.1,16,8.1,16,16.9,16
2012/10/4 10:19,8.3,16,8.3,16,16.8,16
2012/10/4 10:20,8.3,16,8.3,16,15.4,15
2012/10/4 10:21,8.1,16,8.4,16,8.5,16
2012/10/4 10:22,7.5,16,8,16,9.5,2
2012/10/4 10:23,7.6,16,7.7,16,14,1
2012/10/4 10:24,7.6,16,7.8,16,12.1,15
2012/10/4 10:25,7.6,16,7.7,16,12.4,16
2012/10/4 10:26,7.6,16,7.7,16,13.3,1
2012/10/4 10:27,7.5,16,7.7,16,13.1,16